Time,TemperatureF,DewpointF,PressureIn,WindDirection,WindDirectionDegrees,WindSpeedMPH,WindSpeedGustMPH,Humidity,HourlyPrecipIn,Conditions,Clouds,dailyrainin,SoftwareType,DateUTC
2013-04-30 00:01:00,42.8,41.0,30.30,West,270,2.1,3.7,94,0.00,,,0.00,Rainwise IP-100,2013-04-30 04:01:00,
2013-04-30 00:05:00,42.7,41.0,30.30,West,270,1.9,4.0,94,0.00,,,0.00,Rainwise IP-100,2013-04-30 04:05:00,
2013-04-30 00:06:00,42.7,41.0,30.30,West,270,1.6,4.0,94,0.00,,,0.00,Rainwise IP-100,2013-04-30 04:06:00,
2013-04-30 00:08:00,42.7,41.0,30.30,West,270,1.4,4.4,94,0.00,,,0.00,Rainwise IP-100,2013-04-30 04:08:00,
2013-04-30 00:13:00,42.6,42.0,30.30,West,270,2.1,3.7,95,0.00,,,0.00,Rainwise IP-100,2013-04-30 04:13:00,
2013-04-30 00:18:00,42.5,42.0,30.30,West,270,1.9,3.0,95,0.00,,,0.00,Rainwise IP-100,2013-04-30 04:18:00,
2013-04-30 00:23:00,42.4,41.0,30.30,West,270,1.4,3.5,95,0.00,,,0.00,Rainwise IP-100,2013-04-30 04:23:00,
2013-04-30 00:28:00,42.3,41.0,30.30,West,270,1.9,4.2,95,0.00,,,0.00,Rainwise IP-100,2013-04-30 04:28:00,
2013-04-30 00:33:00,42.2,41.0,30.30,West,270,0.0,2.8,96,0.00,,,0.00,Rainwise IP-100,2013-04-30 04:33:00,
2013-04-30 00:38:00,42.1,41.0,30.30,West,270,1.2,2.1,96,0.00,,,0.00,Rainwise IP-100,2013-04-30 04:38:00,
2013-04-30 00:43:00,42.0,41.0,30.29,West,270,1.2,2.6,96,0.00,,,0.00,Rainwise IP-100,2013-04-30 04:43:00,
2013-04-30 00:48:00,41.9,41.0,30.30,West,270,1.2,2.8,96,0.00,,,0.00,Rainwise IP-100,2013-04-30 04:48:00,
2013-04-30 00:53:00,41.9,41.0,30.30,West,270,0.0,2.6,97,0.00,,,0.00,Rainwise IP-100,2013-04-30 04:53:00,
2013-04-30 00:58:00,41.8,41.0,30.30,West,270,1.4,2.8,97,0.00,,,0.00,Rainwise IP-100,2013-04-30 04:58:00,
2013-04-30 01:03:00,41.6,41.0,30.30,West,270,1.4,3.5,97,0.00,,,0.00,Rainwise IP-100,2013-04-30 05:03:00,
2013-04-30 01:08:00,41.5,41.0,30.30,West,270,0.0,2.6,97,0.00,,,0.00,Rainwise IP-100,2013-04-30 05:08:00,
2013-04-30 01:13:00,41.3,40.0,30.30,West,270,0.0,2.1,97,0.00,,,0.00,Rainwise IP-100,2013-04-30 05:13:00,
2013-04-30 01:18:00,41.1,40.0,30.30,West,270,1.2,2.1,97,0.00,,,0.00,Rainwise IP-100,2013-04-30 05:18:00,
2013-04-30 01:23:00,41.0,40.0,30.30,West,270,0.0,2.1,97,0.00,,,0.00,Rainwise IP-100,2013-04-30 05:23:00,
2013-04-30 01:28:00,40.9,40.0,30.30,West,270,0.0,0.0,97,0.00,,,0.00,Rainwise IP-100,2013-04-30 05:28:00,
2013-04-30 01:33:00,40.7,40.0,30.29,West,270,0.0,2.3,97,0.00,,,0.00,Rainwise IP-100,2013-04-30 05:33:00,
2013-04-30 01:38:00,40.7,40.0,30.29,NNW,337,1.9,3.0,96,0.00,,,0.00,Rainwise IP-100,2013-04-30 05:38:00,
2013-04-30 01:43:00,40.9,40.0,30.30,NNW,337,0.0,2.8,96,0.00,,,0.00,Rainwise IP-100,2013-04-30 05:43:00,
2013-04-30 01:48:00,41.0,40.0,30.29,NNW,337,0.0,1.9,95,0.00,,,0.00,Rainwise IP-100,2013-04-30 05:48:00,
2013-04-30 01:53:00,41.2,39.0,30.30,NNW,337,1.4,1.9,93,0.00,,,0.00,Rainwise IP-100,2013-04-30 05:53:00,
2013-04-30 01:58:00,41.5,40.0,30.29,NW,315,1.4,1.9,92,0.00,,,0.00,Rainwise IP-100,2013-04-30 05:58:00,
2013-04-30 02:03:00,41.8,39.0,30.29,WNW,292,1.2,2.1,90,0.00,,,0.00,Rainwise IP-100,2013-04-30 06:03:00,
2013-04-30 02:08:00,42.2,38.0,30.29,NW,315,0.0,2.1,87,0.00,,,0.00,Rainwise IP-100,2013-04-30 06:08:00,
2013-04-30 02:13:00,42.4,38.0,30.29,NW,315,1.4,1.6,85,0.00,,,0.00,Rainwise IP-100,2013-04-30 06:13:00,
2013-04-30 02:18:00,42.6,38.0,30.29,NW,315,1.4,1.6,83,0.00,,,0.00,Rainwise IP-100,2013-04-30 06:18:00,
2013-04-30 02:23:00,42.9,37.0,30.29,NW,315,1.2,1.9,80,0.00,,,0.00,Rainwise IP-100,2013-04-30 06:23:00,
2013-04-30 02:28:00,43.2,37.0,30.29,NW,315,0.0,1.6,77,0.00,,,0.00,Rainwise IP-100,2013-04-30 06:28:00,
2013-04-30 02:33:00,43.3,36.0,30.29,NW,315,0.0,1.6,75,0.00,,,0.00,Rainwise IP-100,2013-04-30 06:33:00,
2013-04-30 02:38:00,43.6,36.0,30.29,NW,315,0.0,0.0,74,0.00,,,0.00,Rainwise IP-100,2013-04-30 06:38:00,
2013-04-30 02:43:00,44.0,36.0,30.29,NW,315,0.0,0.0,72,0.00,,,0.00,Rainwise IP-100,2013-04-30 06:43:00,
2013-04-30 02:48:00,43.9,36.0,30.29,NW,315,1.2,0.0,73,0.00,,,0.00,Rainwise IP-100,2013-04-30 06:48:00,
2013-04-30 02:53:00,43.5,37.0,30.30,NW,315,0.0,1.4,75,0.00,,,0.00,Rainwise IP-100,2013-04-30 06:53:00,
2013-04-30 02:58:00,43.1,36.0,30.30,NW,315,0.0,0.0,76,0.00,,,0.00,Rainwise IP-100,2013-04-30 06:58:00,
2013-04-30 03:03:00,43.3,37.0,30.30,ENE,67,0.0,2.8,79,0.00,,,0.00,Rainwise IP-100,2013-04-30 07:03:00,
2013-04-30 03:08:00,43.6,38.0,30.30,ENE,67,1.4,1.6,81,0.00,,,0.00,Rainwise IP-100,2013-04-30 07:08:00,
2013-04-30 03:13:00,43.6,39.0,30.30,ESE,112,1.9,2.8,83,0.00,,,0.00,Rainwise IP-100,2013-04-30 07:13:00,
2013-04-30 03:18:00,43.5,40.0,30.31,ESE,112,2.1,4.2,85,0.00,,,0.00,Rainwise IP-100,2013-04-30 07:18:00,
2013-04-30 03:23:00,43.1,39.0,30.31,ESE,112,2.8,3.3,87,0.00,,,0.00,Rainwise IP-100,2013-04-30 07:23:00,
2013-04-30 03:28:00,42.8,40.0,30.30,East,90,2.3,3.0,89,0.00,,,0.00,Rainwise IP-100,2013-04-30 07:28:00,
2013-04-30 03:33:00,42.5,40.0,30.31,ESE,112,1.4,3.3,91,0.00,,,0.00,Rainwise IP-100,2013-04-30 07:33:00,
2013-04-30 03:38:00,42.2,40.0,30.30,ESE,112,2.3,3.7,93,0.00,,,0.00,Rainwise IP-100,2013-04-30 07:38:00,
2013-04-30 03:43:00,42.0,40.0,30.31,SE,135,1.9,3.7,94,0.00,,,0.00,Rainwise IP-100,2013-04-30 07:43:00,
2013-04-30 03:48:00,41.9,41.0,30.31,ESE,112,2.8,3.7,95,0.00,,,0.00,Rainwise IP-100,2013-04-30 07:48:00,
2013-04-30 03:53:00,41.8,41.0,30.31,SSE,157,2.1,4.2,95,0.00,,,0.00,Rainwise IP-100,2013-04-30 07:53:00,
2013-04-30 03:58:00,41.7,41.0,30.31,ESE,112,2.8,2.8,95,0.00,,,0.00,Rainwise IP-100,2013-04-30 07:58:00,
2013-04-30 04:03:00,41.6,41.0,30.31,ESE,112,1.9,3.5,95,0.00,,,0.00,Rainwise IP-100,2013-04-30 08:03:00,
2013-04-30 04:08:00,41.5,41.0,30.31,ESE,112,0.0,2.6,95,0.00,,,0.00,Rainwise IP-100,2013-04-30 08:08:00,
2013-04-30 04:13:00,41.7,41.0,30.31,ESE,112,1.9,2.8,95,0.00,,,0.00,Rainwise IP-100,2013-04-30 08:13:00,
2013-04-30 04:18:00,42.0,40.0,30.31,ESE,112,2.1,3.3,94,0.00,,,0.00,Rainwise IP-100,2013-04-30 08:18:00,
2013-04-30 04:23:00,42.2,40.0,30.31,ESE,112,0.0,2.8,93,0.00,,,0.00,Rainwise IP-100,2013-04-30 08:23:00,
2013-04-30 04:28:00,42.2,40.0,30.32,ESE,112,0.0,2.6,91,0.00,,,0.00,Rainwise IP-100,2013-04-30 08:28:00,
2013-04-30 04:33:00,42.0,39.0,30.31,ESE,112,0.0,0.0,90,0.00,,,0.00,Rainwise IP-100,2013-04-30 08:33:00,
2013-04-30 04:38:00,41.8,39.0,30.32,ESE,112,1.4,2.3,90,0.00,,,0.00,Rainwise IP-100,2013-04-30 08:38:00,
2013-04-30 04:43:00,41.9,39.0,30.31,ESE,112,1.9,2.8,89,0.00,,,0.00,Rainwise IP-100,2013-04-30 08:43:00,
2013-04-30 04:48:00,42.0,39.0,30.31,ESE,112,0.0,2.3,89,0.00,,,0.00,Rainwise IP-100,2013-04-30 08:48:00,
2013-04-30 04:53:00,41.8,39.0,30.32,ESE,112,0.0,0.0,88,0.00,,,0.00,Rainwise IP-100,2013-04-30 08:53:00,
2013-04-30 04:58:00,41.6,38.0,30.32,ESE,112,0.0,0.0,87,0.00,,,0.00,Rainwise IP-100,2013-04-30 08:58:00,
2013-04-30 05:03:00,41.5,38.0,30.32,ESE,112,0.0,0.0,87,0.00,,,0.00,Rainwise IP-100,2013-04-30 09:03:00,
2013-04-30 05:08:00,41.4,38.0,30.32,ESE,112,0.0,1.6,87,0.00,,,0.00,Rainwise IP-100,2013-04-30 09:08:00,
2013-04-30 05:13:00,41.2,38.0,30.32,ESE,112,0.0,0.0,87,0.00,,,0.00,Rainwise IP-100,2013-04-30 09:13:00,
2013-04-30 05:18:00,40.9,38.0,30.32,ESE,112,0.0,0.0,88,0.00,,,0.00,Rainwise IP-100,2013-04-30 09:18:00,
2013-04-30 05:23:00,41.0,38.0,30.33,ESE,112,0.0,0.0,88,0.00,,,0.00,Rainwise IP-100,2013-04-30 09:23:00,
2013-04-30 05:28:00,41.3,38.0,30.33,ESE,112,0.0,0.0,87,0.00,,,0.00,Rainwise IP-100,2013-04-30 09:28:00,
2013-04-30 05:33:00,41.6,38.0,30.33,ESE,112,0.0,0.0,87,0.00,,,0.00,Rainwise IP-100,2013-04-30 09:33:00,
2013-04-30 05:38:00,42.0,38.0,30.33,SSW,202,1.6,3.3,87,0.00,,,0.00,Rainwise IP-100,2013-04-30 09:38:00,
2013-04-30 05:43:00,42.3,38.0,30.33,SSW,202,1.9,2.3,87,0.00,,,0.00,Rainwise IP-100,2013-04-30 09:43:00,
2013-04-30 05:48:00,42.4,38.0,30.33,SSW,202,0.0,3.5,87,0.00,,,0.00,Rainwise IP-100,2013-04-30 09:48:00,
2013-04-30 05:53:00,42.6,39.0,30.34,SSW,202,0.0,2.8,87,0.00,,,0.00,Rainwise IP-100,2013-04-30 09:53:00,
2013-04-30 05:58:00,43.0,39.0,30.33,SSW,202,0.0,0.0,86,0.00,,,0.00,Rainwise IP-100,2013-04-30 09:58:00,
2013-04-30 06:03:00,43.5,40.0,30.34,SSW,202,0.0,0.0,86,0.00,,,0.00,Rainwise IP-100,2013-04-30 10:03:00,
2013-04-30 06:08:00,44.1,40.0,30.34,SSW,202,0.0,0.0,85,0.00,,,0.00,Rainwise IP-100,2013-04-30 10:08:00,
2013-04-30 06:13:00,44.6,40.0,30.34,ESE,112,1.2,4.2,84,0.00,,,0.00,Rainwise IP-100,2013-04-30 10:13:00,
2013-04-30 06:18:00,45.0,40.0,30.34,ESE,112,2.3,2.3,83,0.00,,,0.00,Rainwise IP-100,2013-04-30 10:18:00,
2013-04-30 06:23:00,45.4,40.0,30.34,East,90,2.8,3.7,82,0.00,,,0.00,Rainwise IP-100,2013-04-30 10:23:00,
2013-04-30 06:28:00,45.8,40.0,30.34,ESE,112,1.2,3.7,81,0.00,,,0.00,Rainwise IP-100,2013-04-30 10:28:00,
2013-04-30 06:33:00,46.1,40.0,30.34,ESE,112,2.8,3.0,80,0.00,,,0.00,Rainwise IP-100,2013-04-30 10:33:00,
2013-04-30 06:38:00,46.3,39.0,30.34,ESE,112,1.4,3.0,79,0.00,,,0.00,Rainwise IP-100,2013-04-30 10:38:00,
2013-04-30 06:43:00,46.4,39.0,30.35,East,90,2.8,4.0,79,0.00,,,0.00,Rainwise IP-100,2013-04-30 10:43:00,
2013-04-30 06:48:00,46.4,39.0,30.35,ESE,112,1.6,4.4,79,0.00,,,0.00,Rainwise IP-100,2013-04-30 10:48:00,
2013-04-30 06:53:00,46.5,40.0,30.35,SSE,157,1.9,4.2,79,0.00,,,0.00,Rainwise IP-100,2013-04-30 10:53:00,
2013-04-30 06:58:00,46.4,39.0,30.35,East,90,0.0,4.7,79,0.00,,,0.00,Rainwise IP-100,2013-04-30 10:58:00,
2013-04-30 07:03:00,46.6,41.0,30.35,ESE,112,1.4,4.0,80,0.00,,,0.00,Rainwise IP-100,2013-04-30 11:03:00,
2013-04-30 07:08:00,47.0,41.0,30.36,ESE,112,2.6,10.5,80,0.00,,,0.00,Rainwise IP-100,2013-04-30 11:08:00,
2013-04-30 07:13:00,47.4,41.0,30.36,ENE,67,4.0,4.2,79,0.00,,,0.00,Rainwise IP-100,2013-04-30 11:13:00,
2013-04-30 07:18:00,47.7,41.0,30.36,ESE,112,0.0,4.9,78,0.00,,,0.00,Rainwise IP-100,2013-04-30 11:18:00,
2013-04-30 07:23:00,48.3,42.0,30.36,ESE,112,4.4,4.4,78,0.00,,,0.00,Rainwise IP-100,2013-04-30 11:23:00,
2013-04-30 07:28:00,48.5,42.0,30.36,ESE,112,4.7,6.1,77,0.00,,,0.00,Rainwise IP-100,2013-04-30 11:28:00,
2013-04-30 07:33:00,48.4,41.0,30.36,ESE,112,4.7,4.9,76,0.00,,,0.00,Rainwise IP-100,2013-04-30 11:33:00,
2013-04-30 07:38:00,48.5,41.0,30.36,ESE,112,1.6,5.1,75,0.00,,,0.00,Rainwise IP-100,2013-04-30 11:38:00,
2013-04-30 07:43:00,48.7,41.0,30.37,East,90,3.5,4.2,74,0.00,,,0.00,Rainwise IP-100,2013-04-30 11:43:00,
2013-04-30 07:48:00,49.1,41.0,30.36,ESE,112,3.7,5.1,74,0.00,,,0.00,Rainwise IP-100,2013-04-30 11:48:00,
2013-04-30 07:53:00,49.0,41.0,30.36,ESE,112,6.5,9.6,73,0.00,,,0.00,Rainwise IP-100,2013-04-30 11:53:00,
2013-04-30 07:58:00,49.1,40.0,30.37,ESE,112,5.4,10.7,72,0.00,,,0.00,Rainwise IP-100,2013-04-30 11:58:00,
2013-04-30 08:03:00,50.0,41.0,30.37,ESE,112,4.9,7.5,71,0.00,,,0.00,Rainwise IP-100,2013-04-30 12:03:00,
2013-04-30 08:08:00,50.5,41.0,30.37,ESE,112,2.8,5.8,69,0.00,,,0.00,Rainwise IP-100,2013-04-30 12:08:00,
2013-04-30 08:13:00,50.0,39.0,30.37,ESE,112,1.6,10.3,67,0.00,,,0.00,Rainwise IP-100,2013-04-30 12:13:00,
2013-04-30 08:18:00,50.0,39.0,30.37,ESE,112,7.2,11.7,67,0.00,,,0.00,Rainwise IP-100,2013-04-30 12:18:00,
2013-04-30 08:23:00,50.6,39.0,30.37,SE,135,0.0,8.2,66,0.00,,,0.00,Rainwise IP-100,2013-04-30 12:23:00,
2013-04-30 08:28:00,51.0,39.0,30.37,SSE,157,0.0,0.0,64,0.00,,,0.00,Rainwise IP-100,2013-04-30 12:28:00,
2013-04-30 08:33:00,51.7,40.0,30.37,ESE,112,0.0,0.0,63,0.00,,,0.00,Rainwise IP-100,2013-04-30 12:33:00,
2013-04-30 08:38:00,52.6,40.0,30.38,ESE,112,4.4,7.0,62,0.00,,,0.00,Rainwise IP-100,2013-04-30 12:38:00,
2013-04-30 08:43:00,53.2,39.0,30.38,East,90,4.0,6.3,60,0.00,,,0.00,Rainwise IP-100,2013-04-30 12:43:00,
2013-04-30 08:48:00,53.5,39.0,30.37,ESE,112,3.5,7.7,59,0.00,,,0.00,Rainwise IP-100,2013-04-30 12:48:00,
2013-04-30 08:53:00,53.8,39.0,30.38,ESE,112,4.2,9.1,58,0.00,,,0.00,Rainwise IP-100,2013-04-30 12:53:00,
2013-04-30 08:58:00,53.9,39.0,30.38,ENE,67,3.0,7.2,57,0.00,,,0.00,Rainwise IP-100,2013-04-30 12:58:00,
2013-04-30 09:03:00,54.2,39.0,30.38,ESE,112,3.0,6.5,58,0.00,,,0.00,Rainwise IP-100,2013-04-30 13:03:00,
2013-04-30 09:08:00,55.5,41.0,30.38,ESE,112,4.7,12.1,58,0.00,,,0.00,Rainwise IP-100,2013-04-30 13:08:00,
2013-04-30 09:13:00,56.5,41.0,30.38,East,90,8.2,11.2,56,0.00,,,0.00,Rainwise IP-100,2013-04-30 13:13:00,
2013-04-30 09:18:00,56.4,40.0,30.38,ESE,112,3.0,12.1,55,0.00,,,0.00,Rainwise IP-100,2013-04-30 13:18:00,
2013-04-30 09:23:00,56.7,40.0,30.38,ESE,112,3.7,11.2,54,0.00,,,0.00,Rainwise IP-100,2013-04-30 13:23:00,
2013-04-30 09:28:00,57.8,41.0,30.38,SSW,202,5.4,7.5,53,0.00,,,0.00,Rainwise IP-100,2013-04-30 13:28:00,
2013-04-30 09:33:00,58.8,40.0,30.38,ESE,112,13.1,13.1,50,0.00,,,0.00,Rainwise IP-100,2013-04-30 13:33:00,
2013-04-30 09:38:00,58.7,39.0,30.38,East,90,5.8,13.8,47,0.00,,,0.00,Rainwise IP-100,2013-04-30 13:38:00,
2013-04-30 09:43:00,58.8,38.0,30.38,SE,135,7.5,12.6,46,0.00,,,0.00,Rainwise IP-100,2013-04-30 13:43:00,
2013-04-30 09:48:00,59.3,37.0,30.38,SSE,157,4.9,13.1,44,0.00,,,0.00,Rainwise IP-100,2013-04-30 13:48:00,
2013-04-30 09:53:00,59.9,37.0,30.38,SSE,157,3.0,9.8,43,0.00,,,0.00,Rainwise IP-100,2013-04-30 13:53:00,
2013-04-30 09:58:00,60.6,36.0,30.38,ESE,112,4.9,8.6,39,0.00,,,0.00,Rainwise IP-100,2013-04-30 13:58:00,
2013-04-30 10:03:00,60.8,35.0,30.38,ESE,112,5.6,8.9,37,0.00,,,0.00,Rainwise IP-100,2013-04-30 14:03:00,
2013-04-30 10:08:00,60.9,33.0,30.38,South,180,5.1,8.2,36,0.00,,,0.00,Rainwise IP-100,2013-04-30 14:08:00,
2013-04-30 10:13:00,61.3,35.0,30.38,SSE,157,3.7,9.1,36,0.00,,,0.00,Rainwise IP-100,2013-04-30 14:13:00,
2013-04-30 10:18:00,61.3,35.0,30.38,SE,135,7.0,8.9,36,0.00,,,0.00,Rainwise IP-100,2013-04-30 14:18:00,
2013-04-30 10:23:00,60.9,35.0,30.38,East,90,4.7,8.6,37,0.00,,,0.00,Rainwise IP-100,2013-04-30 14:23:00,
2013-04-30 10:28:00,61.5,35.0,30.38,South,180,5.4,8.4,36,0.00,,,0.00,Rainwise IP-100,2013-04-30 14:28:00,
2013-04-30 10:33:00,61.7,33.0,30.38,SE,135,5.6,9.8,35,0.00,,,0.00,Rainwise IP-100,2013-04-30 14:33:00,
2013-04-30 10:38:00,61.7,33.0,30.38,ESE,112,3.5,7.7,34,0.00,,,0.00,Rainwise IP-100,2013-04-30 14:38:00,
2013-04-30 10:43:00,61.9,33.0,30.38,ENE,67,2.1,8.6,34,0.00,,,0.00,Rainwise IP-100,2013-04-30 14:43:00,
2013-04-30 10:48:00,62.9,33.0,30.38,South,180,1.6,8.9,33,0.00,,,0.00,Rainwise IP-100,2013-04-30 14:48:00,
2013-04-30 10:53:00,63.6,33.0,30.37,SE,135,3.7,8.2,32,0.00,,,0.00,Rainwise IP-100,2013-04-30 14:53:00,
2013-04-30 10:58:00,63.4,33.0,30.37,SE,135,2.3,10.0,32,0.00,,,0.00,Rainwise IP-100,2013-04-30 14:58:00,
2013-04-30 11:03:00,62.7,32.0,30.38,ESE,112,5.6,9.3,32,0.00,,,0.00,Rainwise IP-100,2013-04-30 15:03:00,
2013-04-30 11:08:00,62.6,33.0,30.38,SSE,157,5.4,9.6,33,0.00,,,0.00,Rainwise IP-100,2013-04-30 15:08:00,
2013-04-30 11:13:00,63.1,33.0,30.37,SSE,157,2.3,11.9,33,0.00,,,0.00,Rainwise IP-100,2013-04-30 15:13:00,
2013-04-30 11:18:00,63.3,33.0,30.37,ESE,112,6.8,11.9,33,0.00,,,0.00,Rainwise IP-100,2013-04-30 15:18:00,
2013-04-30 11:23:00,63.2,33.0,30.37,East,90,9.8,10.5,32,0.00,,,0.00,Rainwise IP-100,2013-04-30 15:23:00,
2013-04-30 11:28:00,63.5,33.0,30.37,SE,135,7.2,12.6,32,0.00,,,0.00,Rainwise IP-100,2013-04-30 15:28:00,
2013-04-30 11:33:00,63.3,33.0,30.37,East,90,4.0,18.4,32,0.00,,,0.00,Rainwise IP-100,2013-04-30 15:33:00,
2013-04-30 11:38:00,63.0,33.0,30.37,SE,135,4.9,8.4,32,0.00,,,0.00,Rainwise IP-100,2013-04-30 15:38:00,
2013-04-30 11:43:00,63.4,33.0,30.37,East,90,6.1,11.9,33,0.00,,,0.00,Rainwise IP-100,2013-04-30 15:43:00,
2013-04-30 11:48:00,63.6,33.0,30.37,ESE,112,5.1,14.9,33,0.00,,,0.00,Rainwise IP-100,2013-04-30 15:48:00,
2013-04-30 11:53:00,64.0,35.0,30.37,SE,135,3.5,10.7,33,0.00,,,0.00,Rainwise IP-100,2013-04-30 15:53:00,
2013-04-30 11:58:00,64.3,35.0,30.37,ESE,112,3.3,12.4,32,0.00,,,0.00,Rainwise IP-100,2013-04-30 15:58:00,
2013-04-30 12:03:00,64.6,35.0,30.36,West,270,2.3,8.4,32,0.00,,,0.00,Rainwise IP-100,2013-04-30 16:03:00,
2013-04-30 12:08:00,64.6,35.0,30.37,ESE,112,6.1,10.5,32,0.00,,,0.00,Rainwise IP-100,2013-04-30 16:08:00,
2013-04-30 12:13:00,64.3,35.0,30.37,SSE,157,5.1,11.0,32,0.00,,,0.00,Rainwise IP-100,2013-04-30 16:13:00,
2013-04-30 12:18:00,64.1,35.0,30.36,WNW,292,1.9,11.9,33,0.00,,,0.00,Rainwise IP-100,2013-04-30 16:18:00,
2013-04-30 12:23:00,64.3,35.0,30.36,South,180,7.7,10.7,33,0.00,,,0.00,Rainwise IP-100,2013-04-30 16:23:00,
2013-04-30 12:28:00,64.4,35.0,30.36,SE,135,4.9,17.0,32,0.00,,,0.00,Rainwise IP-100,2013-04-30 16:28:00,
2013-04-30 12:33:00,64.9,35.0,30.36,SSE,157,5.8,15.6,32,0.00,,,0.00,Rainwise IP-100,2013-04-30 16:33:00,
2013-04-30 12:38:00,65.4,35.0,30.36,South,180,1.9,7.9,31,0.00,,,0.00,Rainwise IP-100,2013-04-30 16:38:00,
2013-04-30 12:43:00,65.1,33.0,30.36,SSE,157,6.8,7.9,30,0.00,,,0.00,Rainwise IP-100,2013-04-30 16:43:00,
2013-04-30 12:48:00,64.5,32.0,30.36,SSE,157,4.9,11.9,30,0.00,,,0.00,Rainwise IP-100,2013-04-30 16:48:00,
2013-04-30 12:53:00,64.3,32.0,30.36,SSE,157,5.4,14.5,30,0.00,,,0.00,Rainwise IP-100,2013-04-30 16:53:00,
2013-04-30 12:58:00,64.4,32.0,30.36,SSE,157,7.5,11.0,30,0.00,,,0.00,Rainwise IP-100,2013-04-30 16:58:00,
2013-04-30 13:03:00,64.7,32.0,30.36,ESE,112,4.9,14.2,30,0.00,,,0.00,Rainwise IP-100,2013-04-30 17:03:00,
2013-04-30 13:08:00,65.2,33.0,30.36,South,180,7.7,10.7,30,0.00,,,0.00,Rainwise IP-100,2013-04-30 17:08:00,
2013-04-30 13:13:00,65.4,33.0,30.36,SE,135,3.0,8.9,30,0.00,,,0.00,Rainwise IP-100,2013-04-30 17:13:00,
2013-04-30 13:18:00,65.3,33.0,30.36,SSW,202,5.1,10.3,30,0.00,,,0.00,Rainwise IP-100,2013-04-30 17:18:00,
2013-04-30 13:23:00,65.2,33.0,30.36,South,180,3.0,9.8,30,0.00,,,0.00,Rainwise IP-100,2013-04-30 17:23:00,
2013-04-30 13:28:00,64.6,32.0,30.36,ESE,112,3.0,8.4,30,0.00,,,0.00,Rainwise IP-100,2013-04-30 17:28:00,
2013-04-30 13:33:00,64.0,32.0,30.35,ENE,67,5.1,11.2,30,0.00,,,0.00,Rainwise IP-100,2013-04-30 17:33:00,
2013-04-30 13:38:00,64.1,32.0,30.36,ESE,112,8.6,16.1,30,0.00,,,0.00,Rainwise IP-100,2013-04-30 17:38:00,
2013-04-30 13:43:00,64.1,32.0,30.36,ESE,112,4.0,11.2,30,0.00,,,0.00,Rainwise IP-100,2013-04-30 17:43:00,
2013-04-30 13:48:00,64.1,31.0,30.36,SSE,157,5.6,8.9,29,0.00,,,0.00,Rainwise IP-100,2013-04-30 17:48:00,
2013-04-30 13:53:00,64.8,32.0,30.36,SE,135,3.5,9.3,29,0.00,,,0.00,Rainwise IP-100,2013-04-30 17:53:00,
2013-04-30 13:58:00,64.9,31.0,30.36,SE,135,7.2,9.8,28,0.00,,,0.00,Rainwise IP-100,2013-04-30 17:58:00,
2013-04-30 14:03:00,64.6,31.0,30.35,ESE,112,8.4,9.8,28,0.00,,,0.00,Rainwise IP-100,2013-04-30 18:03:00,
2013-04-30 14:08:00,64.9,31.0,30.35,SSW,202,3.0,9.6,28,0.00,,,0.00,Rainwise IP-100,2013-04-30 18:08:00,
2013-04-30 14:13:00,65.3,32.0,30.36,SSE,157,5.1,11.7,28,0.00,,,0.00,Rainwise IP-100,2013-04-30 18:13:00,
2013-04-30 14:18:00,65.1,31.0,30.35,ENE,67,3.0,9.8,28,0.00,,,0.00,Rainwise IP-100,2013-04-30 18:18:00,
2013-04-30 14:23:00,65.2,31.0,30.35,SSE,157,4.7,10.0,28,0.00,,,0.00,Rainwise IP-100,2013-04-30 18:23:00,
2013-04-30 14:28:00,65.5,32.0,30.36,WSW,247,3.5,10.7,28,0.00,,,0.00,Rainwise IP-100,2013-04-30 18:28:00,
2013-04-30 14:33:00,65.9,32.0,30.35,SSW,202,3.0,11.7,28,0.00,,,0.00,Rainwise IP-100,2013-04-30 18:33:00,
2013-04-30 14:38:00,66.0,32.0,30.35,SW,225,6.3,11.9,28,0.00,,,0.00,Rainwise IP-100,2013-04-30 18:38:00,
2013-04-30 14:43:00,66.2,32.0,30.35,SSW,202,3.3,11.7,28,0.00,,,0.00,Rainwise IP-100,2013-04-30 18:43:00,
2013-04-30 14:48:00,66.4,32.0,30.35,SSW,202,3.3,12.1,27,0.00,,,0.00,Rainwise IP-100,2013-04-30 18:48:00,
2013-04-30 14:53:00,66.6,32.0,30.35,SSE,157,9.8,13.5,27,0.00,,,0.00,Rainwise IP-100,2013-04-30 18:53:00,
2013-04-30 14:58:00,66.4,32.0,30.35,SSE,157,5.6,15.4,27,0.00,,,0.00,Rainwise IP-100,2013-04-30 18:58:00,
2013-04-30 15:03:00,65.7,31.0,30.35,ESE,112,6.3,12.8,27,0.00,,,0.00,Rainwise IP-100,2013-04-30 19:03:00,
2013-04-30 15:08:00,65.3,31.0,30.35,WSW,247,6.1,9.8,27,0.00,,,0.00,Rainwise IP-100,2013-04-30 19:08:00,
2013-04-30 15:13:00,64.6,29.0,30.34,South,180,3.5,9.8,27,0.00,,,0.00,Rainwise IP-100,2013-04-30 19:13:00,
2013-04-30 15:18:00,65.0,31.0,30.35,WSW,247,4.2,9.6,27,0.00,,,0.00,Rainwise IP-100,2013-04-30 19:18:00,
2013-04-30 15:23:00,65.9,31.0,30.34,SSW,202,4.9,9.8,27,0.00,,,0.00,Rainwise IP-100,2013-04-30 19:23:00,
2013-04-30 15:28:00,66.1,31.0,30.35,SSW,202,5.4,9.3,26,0.00,,,0.00,Rainwise IP-100,2013-04-30 19:28:00,
2013-04-30 15:33:00,66.0,29.0,30.34,SSE,157,4.2,11.4,25,0.00,,,0.00,Rainwise IP-100,2013-04-30 19:33:00,
2013-04-30 15:38:00,65.6,29.0,30.34,SSE,157,4.4,11.0,25,0.00,,,0.00,Rainwise IP-100,2013-04-30 19:38:00,
2013-04-30 15:43:00,65.7,29.0,30.35,SSE,157,4.9,8.6,26,0.00,,,0.00,Rainwise IP-100,2013-04-30 19:43:00,
2013-04-30 15:48:00,65.9,31.0,30.34,ESE,112,5.6,10.0,26,0.00,,,0.00,Rainwise IP-100,2013-04-30 19:48:00,
2013-04-30 15:53:00,65.6,29.0,30.35,SSW,202,5.8,11.7,26,0.00,,,0.00,Rainwise IP-100,2013-04-30 19:53:00,
2013-04-30 15:58:00,65.8,29.0,30.35,SSE,157,4.7,9.1,25,0.00,,,0.00,Rainwise IP-100,2013-04-30 19:58:00,
2013-04-30 16:03:00,66.2,29.0,30.34,South,180,5.6,7.0,25,0.00,,,0.00,Rainwise IP-100,2013-04-30 20:03:00,
2013-04-30 16:08:00,66.4,29.0,30.35,SSE,157,7.5,8.2,25,0.00,,,0.00,Rainwise IP-100,2013-04-30 20:08:00,
2013-04-30 16:13:00,66.1,28.0,30.35,SSW,202,2.1,8.9,24,0.00,,,0.00,Rainwise IP-100,2013-04-30 20:13:00,
2013-04-30 16:18:00,65.8,28.0,30.35,South,180,6.5,10.7,24,0.00,,,0.00,Rainwise IP-100,2013-04-30 20:18:00,
2013-04-30 16:23:00,66.1,28.0,30.35,ESE,112,5.4,11.4,23,0.00,,,0.00,Rainwise IP-100,2013-04-30 20:23:00,
2013-04-30 16:28:00,65.9,28.0,30.35,SW,225,3.5,12.6,23,0.00,,,0.00,Rainwise IP-100,2013-04-30 20:28:00,
2013-04-30 16:33:00,66.0,28.0,30.35,WSW,247,6.3,12.1,23,0.00,,,0.00,Rainwise IP-100,2013-04-30 20:33:00,
2013-04-30 16:38:00,66.4,26.0,30.35,WNW,292,1.4,10.7,22,0.00,,,0.00,Rainwise IP-100,2013-04-30 20:38:00,
2013-04-30 16:43:00,66.4,28.0,30.35,WSW,247,2.8,7.9,23,0.00,,,0.00,Rainwise IP-100,2013-04-30 20:43:00,
2013-04-30 16:48:00,66.1,28.0,30.35,SSE,157,8.2,8.2,23,0.00,,,0.00,Rainwise IP-100,2013-04-30 20:48:00,
2013-04-30 16:53:00,66.2,28.0,30.35,SW,225,2.8,11.2,23,0.00,,,0.00,Rainwise IP-100,2013-04-30 20:53:00,
2013-04-30 16:58:00,66.4,29.0,30.35,ESE,112,6.1,9.1,25,0.00,,,0.00,Rainwise IP-100,2013-04-30 20:58:00,
2013-04-30 17:03:00,66.5,31.0,30.35,SSE,157,4.9,8.2,25,0.00,,,0.00,Rainwise IP-100,2013-04-30 21:03:00,
2013-04-30 17:08:00,66.6,31.0,30.35,SSW,202,5.4,10.5,25,0.00,,,0.00,Rainwise IP-100,2013-04-30 21:08:00,
2013-04-30 17:13:00,66.5,31.0,30.35,SSW,202,6.5,8.6,25,0.00,,,0.00,Rainwise IP-100,2013-04-30 21:13:00,
2013-04-30 17:18:00,66.4,31.0,30.35,SSW,202,6.5,9.8,26,0.00,,,0.00,Rainwise IP-100,2013-04-30 21:18:00,
2013-04-30 17:23:00,66.1,31.0,30.35,South,180,6.3,9.8,26,0.00,,,0.00,Rainwise IP-100,2013-04-30 21:23:00,
2013-04-30 17:28:00,65.7,31.0,30.35,SSW,202,5.1,9.8,27,0.00,,,0.00,Rainwise IP-100,2013-04-30 21:28:00,
2013-04-30 17:33:00,65.5,32.0,30.35,South,180,5.8,10.0,28,0.00,,,0.00,Rainwise IP-100,2013-04-30 21:33:00,
2013-04-30 17:38:00,65.3,32.0,30.35,SSW,202,4.0,10.5,29,0.00,,,0.00,Rainwise IP-100,2013-04-30 21:38:00,
2013-04-30 17:43:00,64.9,32.0,30.35,WSW,247,2.1,12.1,29,0.00,,,0.00,Rainwise IP-100,2013-04-30 21:43:00,
2013-04-30 17:48:00,64.9,32.0,30.35,SSW,202,7.5,8.9,29,0.00,,,0.00,Rainwise IP-100,2013-04-30 21:48:00,
2013-04-30 17:53:00,65.1,32.0,30.35,SSE,157,7.0,11.9,29,0.00,,,0.00,Rainwise IP-100,2013-04-30 21:53:00,
2013-04-30 17:58:00,65.0,31.0,30.35,WSW,247,8.6,11.2,28,0.00,,,0.00,Rainwise IP-100,2013-04-30 21:58:00,
2013-04-30 18:03:00,64.8,31.0,30.35,SSE,157,4.7,10.7,27,0.00,,,0.00,Rainwise IP-100,2013-04-30 22:03:00,
2013-04-30 18:08:00,64.7,29.0,30.35,SSE,157,9.3,9.8,27,0.00,,,0.00,Rainwise IP-100,2013-04-30 22:08:00,
2013-04-30 18:13:00,64.7,29.0,30.36,South,180,7.9,10.0,27,0.00,,,0.00,Rainwise IP-100,2013-04-30 22:13:00,
2013-04-30 18:18:00,64.5,29.0,30.36,SSW,202,5.6,9.6,27,0.00,,,0.00,Rainwise IP-100,2013-04-30 22:18:00,
2013-04-30 18:23:00,64.2,31.0,30.36,SSW,202,3.7,9.6,28,0.00,,,0.00,Rainwise IP-100,2013-04-30 22:23:00,
2013-04-30 18:28:00,63.9,31.0,30.36,SSW,202,3.0,6.8,28,0.00,,,0.00,Rainwise IP-100,2013-04-30 22:28:00,
2013-04-30 18:33:00,63.4,31.0,30.36,WSW,247,3.0,6.5,28,0.00,,,0.00,Rainwise IP-100,2013-04-30 22:33:00,
2013-04-30 18:38:00,62.7,31.0,30.36,West,270,7.7,7.7,29,0.00,,,0.00,Rainwise IP-100,2013-04-30 22:38:00,
2013-04-30 18:43:00,61.8,31.0,30.36,SSW,202,5.6,8.2,30,0.00,,,0.00,Rainwise IP-100,2013-04-30 22:43:00,
2013-04-30 18:48:00,61.1,29.0,30.37,SW,225,4.2,7.2,30,0.00,,,0.00,Rainwise IP-100,2013-04-30 22:48:00,
2013-04-30 18:53:00,60.5,29.0,30.37,SW,225,2.3,6.1,31,0.00,,,0.00,Rainwise IP-100,2013-04-30 22:53:00,
2013-04-30 18:58:00,60.0,31.0,30.37,SSW,202,2.6,5.4,32,0.00,,,0.00,Rainwise IP-100,2013-04-30 22:58:00,
2013-04-30 19:03:00,59.4,31.0,30.37,WSW,247,0.0,4.9,34,0.00,,,0.00,Rainwise IP-100,2013-04-30 23:03:00,
2013-04-30 19:08:00,58.7,32.0,30.37,WSW,247,2.1,2.8,36,0.00,,,0.00,Rainwise IP-100,2013-04-30 23:08:00,
2013-04-30 19:13:00,57.9,32.0,30.37,SSW,202,3.0,4.4,37,0.00,,,0.00,Rainwise IP-100,2013-04-30 23:13:00,
2013-04-30 19:18:00,57.3,32.0,30.37,WSW,247,3.5,4.4,38,0.00,,,0.00,Rainwise IP-100,2013-04-30 23:18:00,
2013-04-30 19:23:00,56.7,31.0,30.37,SW,225,0.0,5.4,38,0.00,,,0.00,Rainwise IP-100,2013-04-30 23:23:00,
2013-04-30 19:28:00,56.2,32.0,30.37,SW,225,1.2,3.5,39,0.00,,,0.00,Rainwise IP-100,2013-04-30 23:28:00,
2013-04-30 19:33:00,55.4,32.0,30.37,SW,225,2.1,3.3,42,0.00,,,0.00,Rainwise IP-100,2013-04-30 23:33:00,
2013-04-30 19:38:00,54.5,32.0,30.38,SW,225,2.1,3.0,43,0.00,,,0.00,Rainwise IP-100,2013-04-30 23:38:00,
2013-04-30 19:43:00,53.7,32.0,30.37,WSW,247,1.2,3.5,43,0.00,,,0.00,Rainwise IP-100,2013-04-30 23:43:00,
2013-04-30 19:48:00,53.1,31.0,30.37,WSW,247,3.5,3.7,43,0.00,,,0.00,Rainwise IP-100,2013-04-30 23:48:00,
2013-04-30 19:53:00,52.7,29.0,30.37,WSW,247,2.8,5.1,41,0.00,,,0.00,Rainwise IP-100,2013-04-30 23:53:00,
2013-04-30 19:58:00,52.6,29.0,30.37,SSW,202,2.6,4.9,39,0.00,,,0.00,Rainwise IP-100,2013-04-30 23:58:00,
2013-04-30 20:03:00,52.5,28.0,30.37,WSW,247,3.3,4.7,37,0.00,,,0.00,Rainwise IP-100,2013-05-01 00:03:00,
2013-04-30 20:08:00,52.3,26.0,30.37,WSW,247,2.6,5.1,37,0.00,,,0.00,Rainwise IP-100,2013-05-01 00:08:00,
2013-04-30 20:13:00,52.1,26.0,30.38,WSW,247,1.9,4.9,37,0.00,,,0.00,Rainwise IP-100,2013-05-01 00:13:00,
2013-04-30 20:18:00,51.8,28.0,30.37,WSW,247,1.2,3.5,38,0.00,,,0.00,Rainwise IP-100,2013-05-01 00:18:00,
2013-04-30 20:23:00,51.4,28.0,30.38,WSW,247,1.9,3.0,39,0.00,,,0.00,Rainwise IP-100,2013-05-01 00:23:00,
2013-04-30 20:28:00,50.8,28.0,30.38,SW,225,1.9,3.5,40,0.00,,,0.00,Rainwise IP-100,2013-05-01 00:28:00,
2013-04-30 20:33:00,50.3,28.0,30.38,WSW,247,1.4,3.3,41,0.00,,,0.00,Rainwise IP-100,2013-05-01 00:33:00,
2013-04-30 20:38:00,50.1,28.0,30.39,WSW,247,1.4,3.3,42,0.00,,,0.00,Rainwise IP-100,2013-05-01 00:38:00,
2013-04-30 20:43:00,49.8,28.0,30.39,WSW,247,2.3,3.0,43,0.00,,,0.00,Rainwise IP-100,2013-05-01 00:43:00,
2013-04-30 20:48:00,49.6,29.0,30.39,WSW,247,1.6,3.5,44,0.00,,,0.00,Rainwise IP-100,2013-05-01 00:48:00,
2013-04-30 20:53:00,49.3,29.0,30.39,WSW,247,1.9,3.5,45,0.00,,,0.00,Rainwise IP-100,2013-05-01 00:53:00,
2013-04-30 20:58:00,49.1,29.0,30.39,WSW,247,1.9,3.5,46,0.00,,,0.00,Rainwise IP-100,2013-05-01 00:58:00,
2013-04-30 21:03:00,49.1,29.0,30.39,WSW,247,2.3,3.0,47,0.00,,,0.00,Rainwise IP-100,2013-05-01 01:03:00,
2013-04-30 21:08:00,49.1,29.0,30.39,WSW,247,2.3,4.2,47,0.00,,,0.00,Rainwise IP-100,2013-05-01 01:08:00,
2013-04-30 21:13:00,49.0,31.0,30.39,WSW,247,1.6,4.0,48,0.00,,,0.00,Rainwise IP-100,2013-05-01 01:13:00,
2013-04-30 21:18:00,48.8,31.0,30.40,WSW,247,3.0,3.3,48,0.00,,,0.00,Rainwise IP-100,2013-05-01 01:18:00,
2013-04-30 21:23:00,48.6,31.0,30.39,WSW,247,2.1,3.3,48,0.00,,,0.00,Rainwise IP-100,2013-05-01 01:23:00,
2013-04-30 21:28:00,48.6,31.0,30.40,WSW,247,3.0,3.7,48,0.00,,,0.00,Rainwise IP-100,2013-05-01 01:28:00,
2013-04-30 21:33:00,48.6,31.0,30.39,WSW,247,2.6,3.5,48,0.00,,,0.00,Rainwise IP-100,2013-05-01 01:33:00,
2013-04-30 21:38:00,48.6,31.0,30.40,WSW,247,3.0,4.2,48,0.00,,,0.00,Rainwise IP-100,2013-05-01 01:38:00,
2013-04-30 21:43:00,48.6,31.0,30.40,SW,225,2.6,4.0,48,0.00,,,0.00,Rainwise IP-100,2013-05-01 01:43:00,
2013-04-30 21:48:00,48.6,31.0,30.39,WSW,247,4.4,5.6,49,0.00,,,0.00,Rainwise IP-100,2013-05-01 01:48:00,
2013-04-30 21:53:00,48.6,31.0,30.40,WSW,247,3.0,5.1,49,0.00,,,0.00,Rainwise IP-100,2013-05-01 01:53:00,
2013-04-30 21:58:00,48.4,31.0,30.39,WSW,247,2.8,4.9,49,0.00,,,0.00,Rainwise IP-100,2013-05-01 01:58:00,
2013-04-30 22:03:00,48.1,31.0,30.39,WSW,247,3.7,4.4,50,0.00,,,0.00,Rainwise IP-100,2013-05-01 02:03:00,
2013-04-30 22:08:00,47.9,31.0,30.40,WSW,247,2.3,4.4,51,0.00,,,0.00,Rainwise IP-100,2013-05-01 02:08:00,
2013-04-30 22:13:00,47.7,31.0,30.40,WSW,247,4.0,4.4,52,0.00,,,0.00,Rainwise IP-100,2013-05-01 02:13:00,
2013-04-30 22:18:00,47.6,31.0,30.39,WSW,247,2.8,5.1,52,0.00,,,0.00,Rainwise IP-100,2013-05-01 02:18:00,
2013-04-30 22:23:00,47.5,31.0,30.39,WSW,247,2.6,4.0,53,0.00,,,0.00,Rainwise IP-100,2013-05-01 02:23:00,
2013-04-30 22:28:00,47.4,32.0,30.40,WSW,247,2.1,4.2,54,0.00,,,0.00,Rainwise IP-100,2013-05-01 02:28:00,
2013-04-30 22:33:00,47.3,32.0,30.40,WSW,247,2.3,4.0,54,0.00,,,0.00,Rainwise IP-100,2013-05-01 02:33:00,
2013-04-30 22:38:00,47.3,32.0,30.40,WSW,247,1.4,3.5,54,0.00,,,0.00,Rainwise IP-100,2013-05-01 02:38:00,
2013-04-30 22:43:00,47.3,32.0,30.40,WSW,247,2.3,3.3,54,0.00,,,0.00,Rainwise IP-100,2013-05-01 02:43:00,
2013-04-30 22:48:00,47.3,32.0,30.40,WSW,247,1.9,2.8,55,0.00,,,0.00,Rainwise IP-100,2013-05-01 02:48:00,
2013-04-30 22:53:00,47.3,32.0,30.40,WSW,247,1.2,3.0,55,0.00,,,0.00,Rainwise IP-100,2013-05-01 02:53:00,
2013-04-30 22:58:00,47.3,32.0,30.40,WSW,247,2.1,3.3,56,0.00,,,0.00,Rainwise IP-100,2013-05-01 02:58:00,
2013-04-30 23:03:00,47.3,32.0,30.40,WSW,247,0.0,3.5,56,0.00,,,0.00,Rainwise IP-100,2013-05-01 03:03:00,
2013-04-30 23:08:00,47.3,32.0,30.39,WSW,247,2.3,3.3,56,0.00,,,0.00,Rainwise IP-100,2013-05-01 03:08:00,
2013-04-30 23:13:00,47.2,32.0,30.39,WSW,247,2.3,3.0,57,0.00,,,0.00,Rainwise IP-100,2013-05-01 03:13:00,
2013-04-30 23:18:00,47.1,32.0,30.39,WSW,247,2.1,3.3,57,0.00,,,0.00,Rainwise IP-100,2013-05-01 03:18:00,
2013-04-30 23:23:00,47.1,32.0,30.39,WSW,247,2.1,3.5,57,0.00,,,0.00,Rainwise IP-100,2013-05-01 03:23:00,
2013-04-30 23:28:00,47.2,32.0,30.39,WSW,247,3.3,3.3,57,0.00,,,0.00,Rainwise IP-100,2013-05-01 03:28:00,
2013-04-30 23:33:00,47.3,33.0,30.39,WSW,247,2.3,3.7,57,0.00,,,0.00,Rainwise IP-100,2013-05-01 03:33:00,
2013-04-30 23:38:00,47.4,33.0,30.40,WSW,247,1.6,3.5,57,0.00,,,0.00,Rainwise IP-100,2013-05-01 03:38:00,
2013-04-30 23:44:00,47.5,33.0,30.40,WSW,247,2.6,3.5,58,0.00,,,0.00,Rainwise IP-100,2013-05-01 03:44:00,
2013-04-30 23:49:00,47.5,33.0,30.40,WSW,247,2.1,3.0,58,0.00,,,0.00,Rainwise IP-100,2013-05-01 03:49:00,
2013-04-30 23:54:00,47.5,33.0,30.40,WSW,247,0.0,2.8,58,0.00,,,0.00,Rainwise IP-100,2013-05-01 03:54:00,
2013-04-30 23:59:00,47.4,33.0,30.40,WSW,247,1.6,3.0,58,0.00,,,0.00,Rainwise IP-100,2013-05-01 03:59:00,